CAPE
0 0 0 0 0 0 0 0 0 0 0 0 0 0 156 29 493 265 1050 2243 2139 2274 2299 2529 2510 2012 1972 1724 1725 1673 1671 1589 1640 1648 1716 1763 1825 1811 1752 1599 1400 1329 1176 1083 1130 1169 771 379 137
0 0 0 0 0 0 0 0 0 0 0 0 0 0 0 127 183 1132 2112 2645 2029 2075 2142 2212 2564 1980 1935 1525 1534 1690 1582 1434 1426 1526 1609 1685 1694 1613 1491 1454 1423 1347 1058 1151 1055 914 576 308 75
0 0 0 0 0 0 0 0 0 0 0 0 0 0 0 0 38 1322 1504 2460 2015 2001 2023 2128 2605 2194 2046 1546 1459 1645 1610 1429 1246 1236 1343 1445 1461 1404 1420 1491 1579 1297 1073 1026 915 789 500 149 2
0 0 0 0 0 0 0 0 0 0 0 0 0 0 0 0 0 0 2390 2316 2026 1911 1931 2466 2608 1991 2217 1613 1452 1473 1487 1405 1362 1177 1222 1295 1366 1404 1504 1609 1653 1451 1038 910 795 729 436 184 27
0 0 0 0 0 0 0 0 0 0 0 0 0 0 0 0 0 2357 2283 2044 1859 1735 1876 2556 2652 2471 2261 1694 1470 1452 1497 1523 1494 1360 1097 1164 1356 1418 1504 1628 1520 1494 1311 1076 837 787 606 328 70
0 0 0 0 0 0 0 0 0 0 0 0 0 0 0 0 0 730 1821 1634 1687 1737 1988 2292 2591 2514 2272 2023 1713 1688 1604 1556 1525 1406 1202 1221 1339 1335 1383 1551 1583 1595 1452 1209 948 767 443 109 0
0 0 0 0 0 0 0 0 0 0 0 0 0 0 0 0 0 1892 1871 1728 1587 1756 1870 2008 2197 2304 2242 2080 1838 1765 1661 1555 1509 1387 1236 1314 1215 1281 1435 1398 1491 1503 1400 1246 951 665 351 73 0
0 0 0 0 0 0 0 0 0 0 0 0 0 0 0 0 0 1420 1820 1657 1625 1622 1695 1853 1826 2014 1854 1754 1959 1824 1712 1603 1496 1485 1372 1287 1312 1302 1354 1220 1291 1446 1368 1163 883 678 376 142 12
0 0 0 0 0 0 0 0 0 0 0 0 0 0 0 0 0 0 1183 2022 1695 1674 1507 1584 1479 1738 1568 1544 1641 1850 1592 1558 1526 1502 1480 1089 809 831 1014 1039 960 1419 1344 1235 1027 862 543 285 110
0 0 0 0 0 0 0 0 0 0 0 0 0 0 0 0 0 0 0 172 1941 1741 1521 1180 1581 1484 1264 1645 1497 1379 1223 1144 1195 1107 1073 760 682 522 753 833 1149 1163 1333 1281 1211 1075 805 327 2
0 0 0 0 0 0 0 0 0 0 0 0 0 0 0 0 0 0 0 0 510 1701 1362 1435 1296 1313 1092 1465 1311 1256 1205 1123 1007 837 807 643 308 130 654 377 442 637 824 744 651 319 73 4 0
0 0 0 0 0 0 0 0 0 0 0 0 0 0 0 0 0 0 0 0 0 682 1730 1324 1170 1102 1055 1140 1345 1065 712 749 603 512 489 279 91 25 76 114 50 119 138 272 219 36 0 0 0
0 0 0 0 0 0 0 0 0 0 0 0 0 0 0 0 0 0 0 0 0 0 0 1000 977 1028 1051 881 1277 970 734 686 522 498 341 253 93 12 0 3 1 1 37 33 21 0 0 0 0
0 0 0 0 0 0 0 0 0 0 0 0 0 0 0 0 0 0 0 0 0 0 0 429 1037 922 699 859 1112 968 849 774 541 486 520 264 103 57 1 1 0 0 0 2 4 8 0 0 0
0 0 0 0 0 0 0 0 0 0 0 0 0 0 0 0 0 0 0 0 0 0 0 16 1367 835 520 592 722 720 794 700 697 693 472 242 201 120 0 0 0 0 0 0 0 0 0 0 0
0 0 0 0 0 0 0 0 0 0 0 0 0 0 0 0 0 0 0 0 0 0 0 0 38 1158 652 471 469 668 512 648 647 586 465 546 587 163 15 0 0 0 0 0 0 0 0 0 0
0 0 0 0 0 0 0 0 0 0 0 0 0 0 0 0 0 0 0 0 0 0 0 0 3 1166 1050 834 681 360 187 322 309 224 196 238 457 307 78 20 5 0 0 0 2 11 16 35 27
0 0 0 0 0 0 0 0 0 0 0 0 0 0 0 0 0 0 0 0 0 0 0 0 0 743 1322 1148 584 556 318 311 234 230 198 136 197 292 33 1 2 0 0 0 0 20 5 42 63
0 0 0 0 0 0 0 0 0 0 0 0 0 0 0 0 0 0 0 0 0 0 0 0 0 0 926 986 1023 751 1204 915 607 617 552 420 238 250 96 0 3 9 0 9 22 0 10 91 51
0 0 0 0 0 0 0 0 0 0 0 0 0 0 0 0 0 0 0 0 0 0 0 0 0 0 740 1154 994 868 800 610 623 547 661 742 547 338 190 92 98 39 27 21 0 14 27 50 0
0 0 0 0 0 0 0 0 0 0 0 0 0 0 0 0 0 0 0 0 0 0 0 0 0 0 206 937 946 893 898 815 680 483 346 314 384 500 564 414 292 191 75 29 17 43 32 6 0
0 0 0 0 0 0 0 0 0 0 0 0 0 0 0 0 0 0 0 0 0 0 0 0 0 0 32 718 1139 1125 967 589 411 433 424 359 260 343 446 351 439 293 107 109 41 51 46 0 0
0 0 0 0 0 0 0 0 0 0 0 0 0 0 0 0 0 0 0 0 0 0 0 0 0 5 132 635 933 696 433 203 502 543 427 482 361 396 438 387 276 211 137 237 186 134 74 30 0
0 0 0 0 0 0 0 0 0 0 0 0 0 0 0 0 0 0 0 0 0 0 0 0 0 2 98 383 384 445 199 344 343 463 513 427 313 462 633 728 457 255 186 103 101 110 61 0 0
0 0 0 0 0 0 0 0 0 0 0 0 0 0 0 0 0 0 0 0 0 0 0 0 0 4 121 301 380 296 311 272 224 303 690 621 277 500 570 688 803 596 185 23 0 0 0 0 0
0 0 0 0 0 0 0 0 0 0 0 0 0 0 0 0 0 0 0 0 0 0 0 0 0 0 0 11 231 706 609 462 358 516 746 610 407 303 486 608 626 445 1 0 0 0 0 0 0
0 0 0 0 0 0 0 0 0 0 0 6 14 4 0 0 0 0 0 0 0 0 0 0 0 0 0 0 3 39 88 539 1021 943 855 659 406 450 502 616 550 6 0 0 1 1 1 0 0
0 0 0 0 0 0 0 0 0 0 21 42 7 2 0 0 0 0 0 0 0 0 0 0 0 0 0 1 27 81 157 221 709 981 918 712 532 518 435 585 79 1 0 0 1 2 0 0 1
0 0 0 0 0 0 0 0 0 0 1 0 0 0 0 0 0 0 0 0 8 0 0 0 0 0 0 0 152 264 347 430 552 621 547 652 346 113 20 1 1 1 1 1 1 1 0 1 0
0 0 0 0 0 0 2 0 0 0 0 0 0 0 0 0 0 4 12 16 9 0 0 0 0 0 0 0 7 251 454 461 406 572 371 172 11 1 1 1 1 2 1 1 1 2 6 0 1
CIN
-0 -0 -0 -0 -0 -0 -0 -0 -0 -0 -0 -0 -0 -0 -148 -274 -113 -109 -372 -293 -302 -273 -220 -132 -110 -171 -153 -188 -184 -182 -153 -147 -126 -109 -67 -45 -35 -28 -25 -26 -27 -21 -30 -38 -30 -27 -79 -166 -312
-0 -0 -0 -0 -0 -0 -0 -0 -0 -0 -0 -0 -0 -0 -0 -185 -296 -232 -172 -268 -331 -288 -214 -171 -96 -169 -158 -206 -186 -150 -141 -144 -118 -92 -70 -37 -34 -32 -45 -35 -24 -19 -43 -25 -29 -44 -102 -196 -374
-0 -0 -0 -0 -0 -0 -0 -0 -0 -0 -0 -0 -0 -0 -0 -0 -36 -194 -264 -274 -321 -288 -235 -174 -83 -124 -148 -215 -200 -152 -132 -123 -133 -115 -70 -44 -39 -38 -36 -20 -5 -19 -43 -47 -59 -68 -117 -286 -154
-0 -0 -0 -0 -0 -0 -0 -0 -0 -0 -0 -0 -0 -0 -0 -0 -0 -0 -238 -265 -275 -258 -232 -113 -82 -154 -121 -201 -212 -174 -155 -120 -93 -111 -77 -45 -24 -14 -9 -4 -3 -8 -46 -62 -74 -85 -136 -244 -397
-0 -0 -0 -0 -0 -0 -0 -0 -0 -0 -0 -0 -0 -0 -0 -0 -17 -183 -219 -244 -255 -242 -197 -101 -87 -95 -105 -173 -189 -181 -155 -105 -68 -67 -85 -50 -12 -6 -3 -0 -3 -5 -16 -37 -52 -63 -86 -155 -333
-0 -0 -0 -0 -0 -0 -0 -0 -0 -0 -0 -0 -0 -0 -0 -0 -0 -282 -184 -248 -261 -241 -180 -118 -77 -79 -97 -112 -121 -117 -112 -97 -78 -64 -70 -36 -13 -9 -2 -0 -0 -0 -0 -15 -40 -60 -120 -290 -73
-0 -0 -0 -0 -0 -0 -0 -0 -0 -0 -0 -0 -0 -0 -0 -0 -0 -164 -175 -174 -197 -178 -155 -129 -98 -73 -68 -80 -100 -106 -108 -95 -80 -70 -53 -30 -27 -9 -0 -1 -0 -0 -0 -6 -35 -66 -122 -291 -0
-0 -0 -0 -0 -0 -0 -0 -0 -0 -0 -0 -0 -0 -0 -0 -0 -0 -168 -165 -174 -176 -187 -164 -130 -119 -92 -99 -96 -77 -85 -92 -94 -86 -62 -47 -36 -15 -5 -0 -2 -0 -0 -0 -1 -20 -41 -103 -193 -358
-0 -0 -0 -0 -0 -0 -0 -0 -0 -0 -0 -0 -0 -0 -0 -0 -0 -0 -123 -114 -142 -150 -178 -168 -154 -113 -113 -107 -87 -65 -74 -57 -55 -57 -48 -62 -85 -63 -20 -10 -7 -0 -0 -0 -0 -3 -42 -121 -209
-0 -0 -0 -0 -0 -0 -0 -0 -0 -0 -0 -0 -0 -0 -0 -0 -0 -0 -0 -70 -96 -119 -165 -199 -139 -138 -149 -98 -109 -101 -100 -105 -82 -76 -78 -105 -100 -120 -59 -29 -0 -0 -0 -0 -0 -0 -13 -100 -46
-0 -0 -0 -0 -0 -0 -0 -0 -0 -0 -0 -0 -0 -0 -0 -0 -0 -0 -0 -0 -190 -122 -135 -154 -168 -144 -157 -111 -122 -114 -105 -100 -87 -111 -97 -106 -180 -261 -77 -118 -86 -33 -8 -14 -22 -93 -220 -250 -0
-0 -0 -0 -0 -0 -0 -0 -0 -0 -0 -0 -0 -0 -0 -0 -0 -0 -0 -0 -0 -0 -144 -129 -193 -175 -149 -163 -138 -106 -136 -169 -146 -165 -152 -149 -194 -259 -300 -281 -222 -253 -158 -131 -92 -107 -241 -0 -0 -0
-0 -0 -0 -0 -0 -0 -0 -0 -0 -0 -0 -0 -0 -0 -0 -0 -0 -0 -0 -0 -0 -0 -0 -227 -236 -190 -171 -170 -105 -121 -142 -146 -175 -159 -175 -190 -250 -333 -0 -207 -0 -0 -244 -254 -284 -29 -0 -0 -0
-0 -0 -0 -0 -0 -0 -0 -0 -0 -0 -0 -0 -0 -0 -0 -0 -0 -0 -0 -0 -0 -0 -0 -281 -221 -253 -243 -185 -130 -135 -121 -128 -153 -156 -148 -144 -207 -252 -0 -0 -0 -0 -0 -81 -118 -382 -0 -0 -0
-0 -0 -0 -0 -0 -0 -0 -0 -0 -0 -0 -0 -0 -0 -0 -0 -0 -0 -0 -0 -0 -0 -0 -27 -205 -250 -272 -261 -203 -177 -166 -147 -138 -145 -150 -160 -143 -174 -0 -0 -0 -0 -0 -0 -0 -0 -0 -0 -0
-0 -0 -0 -0 -0 -0 -0 -0 -0 -0 -0 -0 -0 -0 -0 -0 -0 -0 -0 -0 -0 -0 -0 -0 -111 -227 -272 -264 -258 -212 -240 -195 -161 -153 -166 -131 -111 -150 -263 -0 -0 -0 -0 -0 -0 -0 -0 -0 -0
-0 -0 -0 -0 -0 -0 -0 -0 -0 -0 -0 -0 -0 -0 -0 -0 -0 -0 -0 -0 -0 -0 -0 -0 -181 -230 -244 -235 -232 -285 -322 -231 -229 -228 -224 -206 -132 -117 -144 -266 -246 -0 -8 -0 -98 -332 -333 -276 -263
-0 -0 -0 -0 -0 -0 -0 -0 -0 -0 -0 -0 -0 -0 -0 -0 -0 -0 -0 -0 -0 -0 -0 -0 -0 -280 -213 -198 -276 -224 -246 -241 -252 -268 -258 -249 -197 -123 -208 -52 -105 -0 -0 -0 -0 -267 -356 -257 -215
-0 -0 -0 -0 -0 -0 -0 -0 -0 -0 -0 -0 -0 -0 -0 -0 -0 -0 -0 -0 -0 -0 -0 -0 -0 -0 -231 -209 -170 -190 -110 -147 -175 -185 -181 -173 -198 -155 -162 -0 -135 -264 -0 -213 -227 -0 -248 -193 -229
-0 -0 -0 -0 -0 -0 -0 -0 -0 -0 -0 -0 -0 -0 -0 -0 -0 -0 -0 -0 -0 -0 -0 -0 -0 -0 -364 -234 -252 -225 -217 -231 -200 -185 -157 -114 -101 -94 -105 -144 -161 -165 -188 -162 -0 -190 -157 -200 -0
-0 -0 -0 -0 -0 -0 -0 -0 -0 -0 -0 -0 -0 -0 -0 -0 -0 -0 -0 -0 -0 -0 -0 -0 -0 -0 -717 -340 -318 -291 -231 -208 -192 -235 -224 -184 -134 -61 -28 -48 -84 -99 -211 -212 -213 -176 -166 -147 -0
-0 -0 -0 -0 -0 -0 -0 -0 -0 -0 -0 -0 -0 -0 -0 -0 -0 -0 -0 -0 -0 -0 -0 -0 -0 -0 -879 -444 -251 -248 -211 -171 -287 -230 -189 -175 -182 -115 -65 -49 -45 -93 -137 -165 -222 -225 -101 -0 -0
-0 -0 -0 -0 -0 -0 -0 -0 -0 -0 -0 -0 -0 -0 -0 -0 -0 -0 -0 -0 -0 -0 -0 -0 -0 -938 -772 -517 -311 -340 -355 -466 -295 -219 -189 -173 -177 -134 -93 -62 -65 -76 -116 -108 -107 -118 -141 -124 -0
-0 -0 -0 -0 -0 -0 -0 -0 -0 -0 -0 -0 -0 -0 -0 -0 -0 -0 -0 -0 -0 -0 -0 -0 -68 -543 -776 -609 -521 -428 -462 -336 -256 -214 -164 -182 -206 -176 -98 -49 -48 -76 -90 -160 -144 -130 -125 -0 -0
-0 -0 -0 -0 -0 -0 -0 -0 -0 -0 -0 -0 -0 -0 -0 -0 -0 -0 -0 -0 -0 -0 -0 -0 -0 -318 -642 -596 -449 -464 -394 -346 -257 -246 -163 -188 -226 -210 -149 -84 -46 -31 -96 -67 -0 -0 -0 -0 -0
-0 -0 -0 -0 -0 -0 -0 -0 -0 -0 -0 -0 -0 -0 -0 -0 -0 -0 -0 -0 -0 -0 -0 -0 -0 -0 -0 -133 -561 -387 -374 -387 -389 -297 -211 -230 -217 -292 -187 -113 -75 -88 -0 -0 -0 -0 -0 -0 -0
-0 -0 -0 -0 -0 -0 -0 -0 -0 -0 -0 -62 -83 -62 -0 -0 -0 -0 -0 -0 -0 -0 -0 -0 -0 -0 -0 -0 -693 -582 -494 -327 -221 -223 -228 -246 -256 -228 -161 -96 -71 -51 -0 -0 -0 -0 -0 -0 -0
-0 -0 -0 -0 -0 -0 -0 -0 -0 -0 -41 -77 -123 -143 -0 -0 -0 -0 -0 -0 -0 -0 -0 -0 -0 -0 -0 -34 -559 -530 -456 -435 -293 -239 -208 -219 -215 -164 -148 -75 -208 -0 -0 -0 -0 -0 -0 -0 -0
-0 -0 -0 -0 -0 -0 -0 -0 -0 -0 -8 -0 -0 -0 -0 -0 -0 -0 -0 -0 -239 -0 -0 -0 -0 -0 -0 -30 -367 -363 -367 -355 -298 -249 -237 -168 -184 -280 -484 -0 -0 -0 -0 -0 -0 -0 -0 -0 -0
-0 -0 -0 -1 -0 -0 -45 -0 -0 -0 -0 -7 -0 -0 -0 -0 -0 -135 -92 -59 -70 -0 -0 -0 -0 -0 -0 -0 -383 -260 -231 -243 -237 -179 -208 -262 -460 -0 -0 -0 -0 -0 -0 -0 -0 -0 -0 -0 -0
Wind_Speed
7 6 2 4 5 6 3 3 3 10 9 1 3 3 6 3 3 3 2 5 5 7 9 9 12 13 11 12 14 15 14 15 15 15 15 15 16 16 14 14 13 13 13 12 10 9 8 6 5
5 3 4 3 7 4 4 4 7 7 8 9 4 2 3 2 0 3 1 4 7 7 5 6 11 14 13 12 12 13 14 14 14 15 15 15 15 15 15 14 14 13 13 11 10 8 7 6 5
3 3 5 6 4 3 0 5 8 8 11 4 1 4 1 4 5 1 1 7 7 7 5 6 11 12 13 13 12 12 13 13 14 14 13 14 14 14 14 13 12 12 12 12 10 8 7 5 4
4 5 5 6 4 1 1 6 7 11 7 6 5 6 4 2 8 6 6 8 7 5 6 8 9 12 12 13 13 13 13 13 13 13 13 13 12 12 11 11 11 11 11 11 9 8 6 5 3
5 4 5 4 2 1 4 4 6 7 6 8 7 4 4 8 8 6 5 6 6 4 4 6 10 10 11 13 13 13 13 13 13 13 13 12 11 11 10 10 10 10 10 10 8 6 5 4 4
5 4 5 2 1 4 5 3 4 7 4 9 10 3 2 6 11 6 2 6 6 6 4 4 8 9 10 11 12 12 12 13 13 12 12 12 11 10 10 9 9 9 8 8 7 6 6 4 4
7 5 4 3 0 2 4 8 4 5 6 8 4 3 3 11 11 5 6 5 4 4 4 3 3 6 9 9 11 12 12 12 12 11 12 11 11 10 9 9 8 8 7 7 6 6 5 4 5
6 6 2 1 1 0 5 7 4 3 3 7 3 3 5 4 8 6 7 5 4 2 3 3 4 4 4 5 10 10 12 12 12 12 11 11 11 10 9 8 8 8 7 6 5 6 6 5 5
3 6 2 1 2 4 4 5 4 3 2 5 2 3 5 3 5 5 3 4 3 2 4 4 7 7 8 5 6 10 12 11 11 11 12 9 4 5 7 6 8 7 7 6 6 7 7 6 5
6 5 2 2 3 2 3 2 4 5 7 3 4 5 7 7 2 5 3 4 4 5 5 5 7 9 7 6 5 4 5 5 5 5 5 4 6 5 6 7 9 9 8 7 7 7 8 8 2
2 4 2 1 2 1 2 1 3 3 7 6 9 10 5 6 6 4 5 4 6 5 3 7 7 9 10 6 4 5 4 4 5 8 5 6 6 6 5 2 2 2 6 3 4 4 3 4 3
4 2 2 5 2 4 5 3 3 4 7 7 11 8 6 8 9 8 7 7 6 6 8 8 7 7 10 4 5 5 6 7 5 8 9 8 6 6 7 6 5 4 4 5 4 3 4 6 5
4 2 4 7 7 4 3 6 4 8 10 8 7 9 10 10 12 8 9 7 9 8 10 9 8 9 8 7 6 5 8 8 8 8 7 8 6 7 6 6 4 4 5 4 4 4 5 6 6
3 4 7 3 5 3 1 2 3 7 6 8 7 10 11 10 11 8 7 10 8 10 10 9 9 12 8 9 10 8 7 8 7 6 7 8 8 7 6 4 5 5 5 5 5 5 5 5 5
3 6 5 4 7 5 3 3 5 10 8 11 11 10 8 9 11 11 10 10 10 9 10 9 10 8 10 12 8 7 7 6 6 6 6 8 8 6 6 4 4 6 5 6 5 5 4 5 5
6 6 6 8 6 2 8 9 8 11 9 15 15 13 11 11 9 11 13 9 10 8 10 10 6 10 11 9 9 7 7 7 6 5 6 9 9 8 6 5 6 5 4 5 5 4 5 5 4
8 4 5 10 5 4 4 10 11 15 9 16 16 16 16 15 13 11 11 10 10 10 9 10 8 11 13 11 8 5 3 4 5 5 5 8 10 10 8 7 5 5 5 5 5 4 4 4 4
5 4 5 6 6 1 4 9 10 15 7 11 10 10 12 13 14 14 14 12 10 10 9 9 6 8 10 4 5 4 3 5 5 6 6 7 7 10 8 6 7 5 5 5 5 7 4 4 3
4 4 7 6 8 3 8 7 12 16 8 8 8 8 10 12 11 11 11 13 13 12 9 10 8 11 5 3 4 3 6 5 3 5 7 8 7 9 9 6 7 6 6 8 7 4 5 4 3
5 5 7 6 4 2 9 14 13 9 5 2 6 9 11 13 16 17 16 14 12 14 11 9 10 7 8 5 2 3 3 2 2 3 5 4 2 5 7 9 8 10 8 8 6 6 3 3 5
4 4 4 6 4 5 6 7 1 3 3 6 5 5 7 9 13 15 18 15 15 17 14 9 9 9 9 7 4 4 4 2 1 1 1 3 5 7 9 9 9 10 8 7 7 6 8 5 2
4 4 5 7 4 6 3 9 5 1 5 5 7 8 9 12 12 14 18 21 20 18 11 7 5 7 2 6 4 7 5 4 1 3 1 3 4 6 8 9 8 7 7 9 8 5 5 3 4
6 4 6 8 5 3 2 1 8 3 3 5 7 8 9 8 9 15 18 18 19 19 16 9 3 2 4 7 6 1 4 3 3 1 3 2 2 4 6 9 10 8 6 7 8 9 11 10 5
4 4 2 4 3 1 3 3 5 3 4 4 4 7 8 8 8 11 15 17 19 20 19 15 8 4 8 7 6 5 6 4 4 3 3 2 3 3 6 7 7 8 9 9 8 8 7 4 2
8 7 6 7 5 5 2 4 10 7 4 5 6 8 10 8 7 7 15 17 18 19 17 14 10 11 5 4 8 7 7 8 7 6 4 4 3 3 5 6 7 7 8 8 7 6 6 7 7
1 6 6 6 4 10 9 8 7 3 4 5 6 8 8 10 8 9 8 13 16 15 16 13 14 13 11 9 6 2 4 3 4 5 4 4 4 4 4 6 7 5 5 5 7 5 5 9 9
3 3 4 3 1 3 5 7 7 0 2 2 7 6 8 8 8 7 8 11 15 14 13 13 9 11 11 8 6 6 5 3 4 6 5 4 4 2 5 8 6 4 6 8 9 7 9 8 8
3 6 1 3 4 5 6 5 6 4 5 6 6 8 9 9 8 7 6 9 14 10 9 11 8 6 7 6 6 5 5 5 4 4 5 4 4 5 7 5 4 7 7 9 10 9 9 12 8
4 1 3 2 5 6 4 7 7 7 8 7 8 9 9 10 8 6 3 5 5 16 9 8 8 7 8 8 7 7 9 9 7 5 5 5 5 4 4 4 4 7 9 9 10 10 12 14 11
4 6 7 6 7 5 4 14 6 7 2 3 6 7 8 7 8 6 6 5 2 6 11 8 7 6 6 7 6 9 8 10 8 7 6 4 4 5 5 5 7 8 7 10 10 13 11 12 12
Wind_Direction
327 314 110 47 56 65 340 44 286 319 331 36 258 261 163 87 156 210 315 141 107 121 139 150 155 152 144 137 136 135 135 134 134 135 135 137 139 142 140 141 147 153 159 160 161 163 166 170 170
324 344 47 73 79 60 303 274 325 257 274 301 228 171 8 73 209 298 37 141 130 121 114 132 155 155 148 142 142 140 140 140 143 144 145 147 146 150 150 152 154 158 162 164 170 178 181 183 184
326 33 74 84 94 117 330 318 292 292 299 273 190 97 132 353 356 306 67 113 105 107 114 146 161 156 152 150 147 144 144 147 148 148 150 152 153 155 154 155 157 162 167 173 181 188 195 204 194
32 13 37 79 99 195 340 311 312 329 335 32 337 49 40 36 332 329 93 107 104 109 127 157 160 165 159 157 155 153 150 151 154 154 157 158 159 158 158 160 161 170 176 182 190 193 204 216 219
33 54 54 71 57 279 274 296 318 345 5 322 336 357 68 349 345 26 83 94 113 125 139 157 165 168 167 166 165 162 157 158 162 162 164 163 164 164 166 168 172 177 183 189 197 204 214 227 253
47 96 61 92 345 306 305 337 331 350 353 338 19 42 77 286 16 334 34 136 136 147 145 157 177 178 176 173 175 169 167 166 167 168 169 170 171 173 176 177 182 188 192 198 204 220 229 239 268
106 75 164 136 79 356 338 329 31 338 347 352 291 37 324 354 344 23 39 42 77 107 128 137 154 188 191 186 185 178 174 174 173 173 176 177 179 184 186 189 193 199 200 208 215 235 256 263 278
95 87 93 20 91 189 327 347 297 24 331 296 2 9 309 316 336 34 45 36 34 107 143 167 188 184 188 197 199 192 184 181 178 178 180 182 188 193 199 202 208 211 212 221 233 251 265 279 283
101 61 49 108 72 284 324 9 294 293 337 317 18 258 269 333 355 41 19 354 335 253 208 184 207 205 209 197 204 196 196 195 189 187 185 181 178 194 207 214 220 226 227 235 249 265 276 286 289
76 85 254 226 322 314 287 276 292 355 322 292 298 270 285 322 21 353 311 259 253 245 232 211 208 212 207 211 190 186 207 186 184 194 188 170 190 205 205 219 231 237 240 245 253 264 278 290 285
146 121 197 225 248 279 228 264 320 288 326 302 293 307 298 304 310 307 279 275 236 216 252 225 204 214 213 205 181 197 201 185 200 194 178 200 208 216 214 197 227 215 250 236 253 274 275 279 271
81 58 96 270 297 317 312 279 314 196 241 287 295 294 289 289 287 284 273 260 259 246 240 204 205 208 215 196 198 197 208 208 197 209 197 202 208 212 214 212 210 209 229 239 240 251 262 273 270
53 302 291 282 285 244 333 342 305 317 318 321 308 313 297 298 294 277 259 237 250 243 252 237 183 206 214 199 204 200 215 214 210 198 196 201 205 218 214 210 192 199 210 220 235 245 257 272 285
288 265 287 284 343 112 65 278 137 278 272 320 323 302 300 299 291 305 279 267 221 239 243 232 209 201 185 202 209 209 215 216 207 200 192 201 218 225 209 203 204 213 210 215 224 236 248 259 263
287 356 349 26 356 14 262 339 339 285 344 323 316 304 290 275 293 279 267 266 251 234 243 232 212 203 200 199 201 204 206 196 206 199 197 197 209 218 216 216 213 226 215 214 219 236 245 258 253
29 46 8 306 346 341 69 283 284 295 335 314 312 310 308 306 283 286 284 268 272 249 231 244 226 200 198 203 203 208 207 190 208 203 189 202 205 201 206 214 226 224 214 219 220 223 243 248 248
11 327 324 317 337 316 65 304 304 311 328 313 314 323 318 316 315 301 289 282 280 277 240 236 236 205 199 208 207 197 176 197 198 191 203 203 205 202 205 210 220 218 222 217 225 232 215 237 254
276 304 268 259 289 271 301 264 290 296 310 289 312 311 311 314 307 313 312 302 296 272 252 238 202 254 211 173 138 160 189 218 202 212 210 206 208 203 194 206 213 220 219 233 219 229 207 229 228
215 226 251 257 266 220 254 260 270 280 306 325 341 321 318 315 302 296 311 309 315 280 259 226 211 214 182 165 173 180 208 209 208 212 202 208 202 201 198 205 202 206 224 232 229 222 209 218 189
217 249 265 282 257 204 279 285 242 272 280 47 328 333 333 325 324 329 333 332 319 305 271 239 216 205 195 198 178 138 147 170 169 205 228 232 228 213 209 199 203 203 208 221 204 197 191 203 187
263 230 268 251 302 252 297 287 204 301 15 4 358 316 326 331 328 333 343 341 335 328 293 244 231 218 188 187 127 88 77 69 138 96 189 220 214 218 219 221 210 212 194 199 199 190 183 188 193
299 191 252 273 333 283 73 287 295 287 306 2 342 346 333 339 345 352 353 360 357 336 301 282 244 229 134 138 177 153 165 161 153 191 155 251 214 226 225 230 226 204 191 190 198 166 210 171 191
228 287 244 263 244 23 274 11 268 218 301 322 326 328 320 317 344 350 354 356 4 351 358 348 25 138 145 159 144 78 96 114 193 147 227 237 242 237 239 237 231 221 215 218 210 194 177 211 164
302 337 346 50 99 34 230 99 276 256 218 295 294 309 313 316 332 352 355 358 3 357 5 6 348 80 107 120 128 144 138 154 177 196 230 229 251 243 237 231 231 229 218 208 201 195 179 169 161
34 41 332 346 2 236 241 316 239 262 210 221 264 297 302 303 328 7 2 357 352 356 356 4 358 25 1 132 121 168 178 190 204 208 220 217 250 246 244 241 232 240 222 200 163 160 142 150 133
148 142 147 292 266 280 281 245 254 235 179 236 273 274 292 330 344 356 359 1 345 350 341 355 3 16 24 36 23 285 256 231 220 209 231 238 231 240 258 253 237 200 140 128 122 120 120 131 126
192 187 190 215 260 9 240 290 317 69 288 289 273 312 312 309 314 328 346 19 346 337 337 329 359 0 15 19 23 17 15 336 264 251 249 271 287 308 298 275 230 148 136 126 116 114 111 104 107
185 164 30 17 289 267 285 258 242 282 242 263 312 316 303 310 308 314 338 16 355 329 317 325 337 1 336 7 17 8 347 334 284 249 254 283 327 321 314 307 108 111 118 125 125 123 118 110 97
281 246 68 139 165 211 290 261 208 222 244 281 297 310 312 320 305 294 340 27 2 328 327 308 332 355 11 3 356 10 1 354 351 0 1 346 346 356 34 59 95 122 124 124 120 118 122 112 106
172 217 165 154 246 237 199 267 231 258 327 322 297 299 337 331 345 276 298 338 357 298 306 315 327 346 351 345 3 9 5 356 350 342 337 23 47 49 84 98 103 107 109 124 129 129 118 115 119